Location: Lane
(33.5226°N, 79.8788°W)
Time: 11:43:08
(UTC+00:00)

Explorer 7 - Pass Details

Date: 10 October 2022
Orbit: 481 x 665 km, 50.3° (Epoch: 26 November)

Event Time Altitude Azimuth Distance (km) Brightness Sun altitude
Rises 16:34:12 0° 315° (NW) 3,003 10.2 48.9°
Reaches altitude 10° 16:38:50 10° 354° (N) 2,076 9.5 49.1°
Maximum altitude 16:39:46 11° 6° (N) 2,037 9.4 49.2°
Drops below altitude 10° 16:40:43 10° 17° (NNE) 2,066 9.5 49.2°
Sets 16:45:15 0° 58° (ENE) 2,938 10.4 49.3°
